Location: Gesvres
(49.0440°N, 2.8518°E)
Time: 17:02:47
(UTC+00:00)

SL-08 R/B - Visible Passes

Search period start: 30 September 2023 00:00
Search period end: 10 October 2023 00:00
Orbit: 672 x 735 km, 98.5° (Epoch: 29 September)

Date Brightness Start Highest point End Pass type
(mag) Time Alt. Az. Time Alt. Az. Time Alt. Az.
30 Sep 6.6 03:07:09 10° ENE 03:09:05 12° NE 03:11:03 10° NNE visible
30 Sep 3.7 04:41:12 10° SSE 04:45:56 71° ENE 04:50:48 10° N visible
30 Sep 3.5 18:14:22 10° NNE 18:19:20 87° WNW 18:24:16 10° SSW visible
30 Sep 6.5 19:53:32 10° NNW 19:56:21 15° NW 19:59:11 10° W visible
01 Oct 5.7 03:47:45 10° ESE 03:51:40 26° ENE 03:55:38 10° N visible
01 Oct 4.9 18:57:44 10° N 19:02:19 39° WNW 19:06:51 10° SW visible
02 Oct 6.8 02:57:32 10° NE 02:57:49 10° NE 02:58:04 10° NE visible
02 Oct 4.1 04:29:49 10° SSE 04:34:29 56° ENE 04:39:17 10° N visible
02 Oct 3.4 18:02:53 10° NNE 18:07:52 75° ESE 18:12:46 10° S visible
02 Oct 6.2 19:41:39 10° NNW 19:45:02 19° WNW 19:48:23 10° W visible
03 Oct 6.0 03:36:44 10° ESE 03:40:18 21° ENE 03:43:55 10° N visible
03 Oct 3.4 05:12:51 10° S 05:17:36 62° WSW 05:22:28 10° NNW visible
03 Oct 4.5 18:46:09 10° N 18:50:55 48° WNW 18:55:37 10° SW visible
04 Oct 4.6 04:18:30 10° SE 04:23:03 45° ENE 04:27:43 10° N visible
04 Oct 3.5 17:51:27 10° NNE 17:56:21 59° ESE 18:01:11 10° S visible
04 Oct 5.9 19:29:53 10° N 19:33:41 23° WNW 19:37:28 10° WSW visible
05 Oct 6.2 03:25:50 10° E 03:28:57 17° ENE 03:32:08 10° NNE visible
05 Oct 3.3 05:01:17 10° SSE 05:06:04 79° WSW 05:11:00 10° NNW visible
05 Oct 4.0 18:34:35 10° N 18:39:28 60° WNW 18:44:17 10° SSW visible
05 Oct 6.7 20:14:53 10° NW 20:16:12 11° NW 20:17:32 10° WNW visible
06 Oct 5.0 04:07:15 10° SE 04:11:38 36° ENE 04:16:06 10° N visible
06 Oct 3.7 17:40:02 10° NNE 17:44:49 46° E 17:49:31 10° S visible
06 Oct 5.5 19:18:10 10° N 19:22:19 28° WNW 19:26:25 10° WSW visible
07 Oct 6.5 03:15:04 10° E 03:17:38 14° NE 03:20:12 10° NNE visible
07 Oct 3.5 04:49:45 10° SSE 04:54:34 82° ENE 04:59:31 10° NNW visible
07 Oct 3.6 18:23:03 10° NNE 18:28:00 76° WNW 18:32:52 10° SSW visible
07 Oct 6.5 20:02:33 10° NNW 20:04:54 14° NW 20:07:15 10° W visible
08 Oct 5.4 03:56:04 10° ESE 04:00:14 29° ENE 04:04:27 10° N visible
08 Oct 5.2 19:06:30 10° N 19:10:55 34° WNW 19:15:17 10° SW visible
09 Oct 6.6 03:04:36 10° ENE 03:06:18 12° NE 03:08:02 10° NNE visible
09 Oct 3.8 04:38:18 10° SSE 04:43:06 66° ENE 04:47:59 10° N visible
09 Oct 3.4 18:11:32 10° NNE 18:16:30 86° ESE 18:21:23 10° SSW visible
09 Oct 6.3 19:50:33 10° NNW 19:53:34 16° NW 19:56:34 10° W visible
